Regional Weather Roundup
Issued by NWS Goodland, KS

Home | Current Version | Previous Version | Text Only | Print | Product List | Glossary On
Versions: 1 2 3 4 5 6 7 8 9 10 11 12 13 14 15 16 17 18 19 20 21 22 23 24 25 26 27 28 29 30 31 32 33 34 35 36 37 38 39 40 41 42 43 44 45 46 47 48 49 50
000
ASUS43 KGLD 170008
RWRGLD

GOODLAND FORECAST AREA HOURLY WEATHER ROUNDUP
NATIONAL WEATHER SERVICE GOODLAND KS
500 PM MST SAT DEC 16 2017

...OFFICIAL OBSERVATIONS...

CITY           SKY/WX    TMP DP  RH WIND       PRES   REMARKS
GOODLAND KS    CLEAR     41  18  39 NE13      29.78R
HILL CITY KS   CLEAR     42  19  39 NE12      29.81R
IMPERIAL NEB   CLOUDY    37  28  70 NE13      29.87R
MCCOOK NEB     CLEAR     41  29  62 NE17      29.84R
AKRON CO       CLOUDY    34  23  64 NE12      29.85R
BURLINGTON CO  CLEAR     39  20  46 NE12      29.79R
LIMON CO       CLOUDY    30  13  49 N8        29.82R
$$

...UNOFFICIAL OBSERVATIONS...

CITY           SKY/WX    TMP DP  RH WIND       PRES   REMARKS
COLBY KS       CLEAR     41  23  48 NE12      29.81R
LENORA KS        N/A     42  32  68 E6          N/A
NORTON KS      CLEAR     39  12  33 NE8       29.82
SHARON SPRINGS   N/A     38  15  40 NE10        N/A
TRENTON NEB      N/A     41  32  70 NE8         N/A
KIT CARSON CO    N/A     40  18  41 MISG        N/A
YUMA CO        FAIR      36  27  69 NE10      29.85R
$$




USA.gov is the U.S. government's official web portal to all federal, state and local government web resources and services.